This is the latest recevied weather packets stored in our database for station/object DB0RES-5. If no packets are shown the sender has not sent any weather packets the latest 10 day(s).
| Time | Temp. | Humidity | Pressure | Rain* | Wind** | Luminosity | Snow |
|---|---|---|---|---|---|---|---|
| 1778180747 | 13.33° C | 66% | 1018.2 hPa | 0 mm | - | - | - |
| 1778180145 | 13.33° C | 65% | 1018.1 hPa | 0 mm | - | - | - |
| 1778179542 | 13.89° C | 65% | 1018 hPa | 0 mm | - | - | - |
| 1778178940 | 13.89° C | 65% | 1017.8 hPa | 0 mm | - | - | - |
| 1778178337 | 14.44° C | 64% | 1017.8 hPa | 0 mm | - | - | - |
| 1778177734 | 15° C | 61% | 1017.5 hPa | 0 mm | - | - | - |
| 1778177132 | 15.56° C | 58% | 1017.5 hPa | 0 mm | - | - | - |
| 1778176529 | 15.56° C | 56% | 1017.5 hPa | 0 mm | - | - | - |
| 1778175926 | 15.56° C | 55% | 1017.3 hPa | 0 mm | - | - | - |
| 1778175324 | 15.56° C | 55% | 1017.4 hPa | 0 mm | - | - | - |
| 1778174721 | 15.56° C | 56% | 1017.3 hPa | 0 mm | - | - | - |
| 1778174119 | 15.56° C | 56% | 1017.3 hPa | 0 mm | - | - | - |
| 1778173516 | 15.56° C | 57% | 1017.3 hPa | 0 mm | - | - | - |
| 1778172974 | - | - | 1017.3 hPa | 0 mm | - | - | - |
| 1778172371 | 16.11° C | 54% | 1017.2 hPa | 0 mm | - | - | - |
| 1778171769 | 16.11° C | 53% | 1017.2 hPa | 0 mm | - | - | - |
| 1778171166 | 16.11° C | 52% | 1017.2 hPa | 0 mm | - | - | - |
| 1778170563 | 15.56° C | 52% | 1017.1 hPa | 0 mm | - | - | - |
| 1778169961 | 16.11° C | 51% | 1017.2 hPa | 0 mm | - | - | - |
| 1778169359 | 16.11° C | 51% | 1017.1 hPa | 0 mm | - | - | - |
| 1778168756 | 16.67° C | 51% | 1017 hPa | 0 mm | - | - | - |
| 1778168153 | 16.11° C | 52% | 1017 hPa | 0 mm | - | - | - |
| 1778167551 | 16.11° C | 51% | 1017 hPa | 0 mm | - | - | - |
| 1778166948 | 16.11° C | 49% | 1016.9 hPa | 0 mm | - | - | - |
| 1778166346 | 16.67° C | 47% | 1016.9 hPa | 0 mm | - | - | - |
* Rain latest hour (hover to see other rain measurements)
** Current wind speed in m/s (hover to see current wind gust speed)